Voltar ao catálogo

COSMOS 2499 DEB

AtivoPO
NORAD 49942·DEBRIS·🇷🇺 Russia

Lançado May 23, 2014 de Plesetsk Cosmodrome

Loading…

Próximas Passagens (próximas 24 horas)

TLE

AtualizadoSource: Space-Track

Época: Sep 14, 2026, 12:41 UTC

1 49942U 14028Z   26257.52895549  .00001753  00000-0  65070-2 0  9998
2 49942  82.4578 194.9485 0194543 148.1977 213.1052 12.85823849227697

Acompanhe COSMOS 2499 DEB em tempo real com AllMySat

Download on the App Store